Simultaneous Nadir Overpasses (SNOs) Predictions

Prediction of SNOs between GOES-15 and TERRA Satellite Orbit:

Table of predicted SNOs for the next 14.0 days since TLE Epoch: 10/9/2020
Index Date Time (GOES-15) GOES-15 Lat,Lon TERRA Lat,Lon Distance(km) Time Diff (sec)
1 10/11/2020 06:57:08 -0.14,-128.43 0.13,-127.06 155.61 80
2 10/11/2020 19:21:04 0.14,-128.40 0.93,-132.22 434.15 80
3 10/13/2020 06:44:57 -0.14,-128.42 0.79,-124.11 490.04 80
4 10/13/2020 19:08:52 0.14,-128.38 0.33,-129.26 99.80 80
5 10/15/2020 18:54:00 0.14,-128.36 -0.28,-126.30 234.15 80
6 10/16/2020 07:18:04 -0.15,-128.38 -0.84,-131.49 353.69 80
7 10/18/2020 07:03:13 -0.15,-128.36 -0.17,-128.54 20.39 80
8 10/20/2020 06:53:41 -0.15,-128.33 0.44,-125.58 312.49 80
9 10/20/2020 19:14:56 0.16,-128.29 0.68,-130.73 277.76 80
10 10/22/2020 19:00:04 0.16,-128.25 0.07,-127.77 54.39 80
